| time (UTC) | temp C | wind direction | speed KPH | gust KPH | rain 1hr cm | rain 24hr cm | rain mn cm | humidity % | barometer mb |
| 20260509101526 | 16 | 92 | 4.8 | 12.9 | 0.00 | 0.00 | 0.00 | 32 | 1023.4 |
| 20260509101012 | 16 | 104 | 3.2 | 17.7 | 0.00 | 0.00 | 0.00 | 31 | 1023.5 |
| 20260509100507 | 15 | 129 | 9.7 | 17.7 | 0.00 | 0.00 | 0.00 | 32 | 1023.5 |
| 20260509100026 | 16 | 158 | 4.8 | 14.5 | 0.00 | 0.00 | 0.00 | 32 | 1023.5 |
| 20260509095510 | 15 | 124 | 4.8 | 14.5 | 0.00 | 0.00 | 0.00 | 31 | 1023.6 |
| 20260509095011 | 15 | 107 | 4.8 | 14.5 | 0.00 | 0.00 | 0.00 | 31 | 1023.5 |
| 20260509094527 | 15 | 141 | 8.0 | 16.1 | 0.00 | 0.00 | 0.00 | 30 | 1023.5 |
| 20260509094010 | 15 | 84 | 4.8 | 17.7 | 0.00 | 0.00 | 0.00 | 30 | 1023.5 |
| 20260509093509 | 15 | 114 | 8.0 | 17.7 | 0.00 | 0.00 | 0.00 | 30 | 1023.5 |
| 20260509093023 | 16 | 42 | 4.8 | 14.5 | 0.00 | 0.00 | 0.00 | 31 | 1023.5 |
| 20260509092509 | 15 | 42 | 6.4 | 14.5 | 0.00 | 0.00 | 0.00 | 29 | 1023.7 |
| 20260509092008 | 15 | 101 | 6.4 | 16.1 | 0.00 | 0.00 | 0.00 | 31 | 1023.7 |
| 20260509091518 | 15 | 42 | 8.0 | 16.1 | 0.00 | 0.00 | 0.00 | 35 | 1023.8 |
| 20260509091007 | 15 | 47 | 3.2 | 14.5 | 0.00 | 0.00 | 0.00 | 33 | 1023.7 |
| 20260509090511 | 14 | 150 | 6.4 | 14.5 | 0.00 | 0.00 | 0.00 | 34 | 1023.6 |
| 20260509090027 | 15 | 68 | 4.8 | 14.5 | 0.00 | 0.00 | 0.00 | 30 | 1023.6 |
| 20260509085510 | 14 | 61 | 3.2 | 14.5 | 0.00 | 0.00 | 0.00 | 31 | 1023.5 |
| 20260509085009 | 14 | 117 | 8.0 | 14.5 | 0.00 | 0.00 | 0.00 | 31 | 1023.5 |
| 20260509084531 | 14 | 109 | 6.4 | 12.9 | 0.00 | 0.00 | 0.00 | 33 | 1023.7 |
| 20260509084009 | 14 | 112 | 3.2 | 17.7 | 0.00 | 0.00 | 0.00 | 31 | 1023.7 |
| 20260509083510 | 14 | 75 | 8.0 | 17.7 | 0.00 | 0.00 | 0.00 | 32 | 1023.7 |
| 20260509083027 | 14 | 63 | 4.8 | 16.1 | 0.00 | 0.00 | 0.00 | 30 | 1023.8 |
| 20260509082507 | 14 | 57 | 8.0 | 16.1 | 0.00 | 0.00 | 0.00 | 31 | 1023.8 |
| 20260509082012 | 14 | 82 | 9.7 | 16.1 | 0.00 | 0.00 | 0.00 | 33 | 1023.8 |
| 20260509081528 | 13 | 75 | 4.8 | 16.1 | 0.00 | 0.00 | 0.00 | 32 | 1023.8 |
| 20260509081009 | 13 | 57 | 6.4 | 16.1 | 0.00 | 0.00 | 0.00 | 34 | 1023.8 |
| 20260509080512 | 13 | 65 | 3.2 | 12.9 | 0.00 | 0.00 | 0.00 | 36 | 1023.9 |
| 20260509080026 | 13 | 36 | 4.8 | 17.7 | 0.00 | 0.00 | 0.00 | 36 | 1023.9 |
| 20260509075509 | 13 | 86 | 3.2 | 17.7 | 0.00 | 0.00 | 0.00 | 36 | 1023.8 |
| 20260509075009 | 12 | 117 | 6.4 | 14.5 | 0.00 | 0.00 | 0.00 | 34 | 1023.9 |
| 20260509074524 | 12 | 96 | 3.2 | 14.5 | 0.00 | 0.00 | 0.00 | 35 | 1023.9 |
| 20260509074013 | 12 | 64 | 3.2 | 14.5 | 0.00 | 0.00 | 0.00 | 33 | 1024.0 |
| 20260509073514 | 12 | 82 | 3.2 | 12.9 | 0.00 | 0.00 | 0.00 | 35 | 1024.0 |
| 20260509073040 | 12 | 127 | 6.4 | 12.9 | 0.00 | 0.00 | 0.00 | 34 | 1024.0 |
| 20260509072509 | 12 | 117 | 4.8 | 12.9 | 0.00 | 0.00 | 0.00 | 36 | 1024.0 |
| 20260509072011 | 12 | 78 | 6.4 | 12.9 | 0.00 | 0.00 | 0.00 | 35 | 1024.0 |
| 20260509071526 | 12 | 42 | 6.4 | 14.5 | 0.00 | 0.00 | 0.00 | 36 | 1024.0 |
| 20260509071008 | 11 | 117 | 3.2 | 14.5 | 0.00 | 0.00 | 0.00 | 39 | 1024.0 |
| 20260509070504 | 11 | 68 | 6.4 | 14.5 | 0.00 | 0.00 | 0.00 | 38 | 1024.0 |
| 20260509070027 | 11 | 173 | 3.2 | 14.5 | 0.00 | 0.00 | 0.00 | 41 | 1024.0 |
| 20260509065508 | 11 | 62 | 8.0 | 14.5 | 0.00 | 0.00 | 0.00 | 39 | 1024.0 |
| 20260509065004 | 11 | 115 | 6.4 | 12.9 | 0.00 | 0.00 | 0.00 | 39 | 1024.0 |
| 20260509064513 | 11 | 110 | 8.0 | 12.9 | 0.00 | 0.00 | 0.00 | 39 | 1024.0 |
| 20260509064012 | 11 | 107 | 4.8 | 14.5 | 0.00 | 0.00 | 0.00 | 40 | 1024.0 |
| 20260509063509 | 11 | 117 | 6.4 | 14.5 | 0.00 | 0.00 | 0.00 | 39 | 1024.1 |
| 20260509063014 | 11 | 69 | 4.8 | 14.5 | 0.00 | 0.00 | 0.00 | 42 | 1024.0 |
| 20260509062513 | 10 | 66 | 6.4 | 14.5 | 0.00 | 0.00 | 0.00 | 41 | 1024.0 |
| 20260509062011 | 10 | 90 | 6.4 | 16.1 | 0.00 | 0.00 | 0.00 | 40 | 1024.0 |
| 20260509061515 | 10 | 111 | 4.8 | 16.1 | 0.00 | 0.00 | 0.00 | 40 | 1024.0 |
| 20260509061007 | 10 | 59 | 4.8 | 12.9 | 0.00 | 0.00 | 0.00 | 42 | 1024.0 |
| 20260509060508 | 10 | 118 | 3.2 | 12.9 | 0.00 | 0.00 | 0.00 | 41 | 1024.0 |
| 20260509060031 | 10 | 68 | 3.2 | 9.7 | 0.00 | 0.00 | 0.00 | 45 | 1024.0 |
| 20260509055509 | 9 | 90 | 3.2 | 11.3 | 0.00 | 0.00 | 0.00 | 46 | 1024.1 |
| 20260509055010 | 8 | 99 | 4.8 | 11.3 | 0.00 | 0.00 | 0.00 | 48 | 1024.1 |
| 20260509054528 | 8 | 106 | 1.6 | 4.8 | 0.00 | 0.00 | 0.00 | 51 | 1024.2 |
| 20260509054007 | 8 | 85 | 1.6 | 6.4 | 0.00 | 0.00 | 0.00 | 53 | 1024.1 |
| 20260509053506 | 8 | 59 | 1.6 | 6.4 | 0.00 | 0.00 | 0.00 | 54 | 1024.1 |
| 20260509053022 | 7 | 79 | 3.2 | 6.4 | 0.00 | 0.00 | 0.00 | 55 | 1024.2 |
| 20260509052509 | 7 | 121 | 1.6 | 4.8 | 0.00 | 0.00 | 0.00 | 57 | 1024.1 |
| 20260509052008 | 7 | 74 | 1.6 | 4.8 | 0.00 | 0.00 | 0.00 | 57 | 1024.2 |
| 20260509051516 | 7 | 62 | 1.6 | 6.4 | 0.00 | 0.00 | 0.00 | 57 | 1024.2 |
| 20260509051007 | 6 | 90 | 1.6 | 6.4 | 0.00 | 0.00 | 0.00 | 59 | 1024.2 |
| 20260509050508 | 6 | 64 | 1.6 | 4.8 | 0.00 | 0.00 | 0.00 | 59 | 1024.2 |
| 20260509050024 | 6 | 55 | 0.0 | 3.2 | 0.00 | 0.00 | 0.00 | 62 | 1024.2 |
| 20260509045510 | 6 | 60 | 0.0 | 3.2 | 0.00 | 0.00 | 0.00 | 64 | 1024.2 |
| 20260509045008 | 5 | 69 | 0.0 | 3.2 | 0.00 | 0.00 | 0.00 | 66 | 1024.1 |
| 20260509044512 | 5 | 78 | 0.0 | 4.8 | 0.00 | 0.00 | 0.00 | 68 | 1024.0 |
| 20260509044009 | 5 | 65 | 1.6 | 6.4 | 0.00 | 0.00 | 0.00 | 69 | 1024.0 |
| 20260509043510 | 3 | 66 | 1.6 | 6.4 | 0.00 | 0.00 | 0.00 | 73 | 1024.0 |
| 20260509043024 | 3 | 67 | 1.6 | 4.8 | 0.00 | 0.00 | 0.00 | 75 | 1024.0 |
| 20260509042505 | 2 | 67 | 1.6 | 4.8 | 0.00 | 0.00 | 0.00 | 77 | 1024.2 |
| 20260509042013 | 2 | 69 | 1.6 | 3.2 | 0.00 | 0.00 | 0.00 | 78 | 1024.1 |
| 20260509041521 | 1 | 67 | 0.0 | 4.8 | 0.00 | 0.00 | 0.00 | 80 | 1024.1 |
| 20260509041009 | 1 | 61 | 1.6 | 4.8 | 0.00 | 0.00 | 0.00 | 78 | 1024.0 |
| 20260509040508 | 1 | 64 | 0.0 | 1.6 | 0.00 | 0.00 | 0.00 | 78 | 1024.0 |
| 20260509040015 | 1 | 63 | 0.0 | 0.0 | 0.00 | 0.00 | 0.00 | 79 | 1024.1 |
| 20260509035504 | 1 | 63 | 0.0 | 0.0 | 0.00 | 0.00 | 0.00 | 80 | 1024.1 |
| 20260509035006 | 1 | 63 | 0.0 | 0.0 | 0.00 | 0.00 | 0.00 | 79 | 1024.1 |
| 20260509034513 | 1 | 63 | 0.0 | 0.0 | 0.00 | 0.00 | 0.00 | 78 | 1024.1 |
| 20260509034008 | 1 | 63 | 0.0 | 0.0 | 0.00 | 0.00 | 0.00 | 79 | 1024.2 |
| 20260509033502 | 1 | 63 | 0.0 | 3.2 | 0.00 | 0.00 | 0.00 | 79 | 1024.2 |
| 20260509033011 | 1 | 63 | 0.0 | 3.2 | 0.00 | 0.00 | 0.00 | 78 | 1024.2 |
| 20260509032511 | 1 | 63 | 0.0 | 3.2 | 0.00 | 0.00 | 0.00 | 78 | 1024.2 |
| 20260509032003 | 1 | 67 | 0.0 | 3.2 | 0.00 | 0.00 | 0.00 | 79 | 1024.2 |
| 20260509031515 | 1 | 67 | 0.0 | 3.2 | 0.00 | 0.00 | 0.00 | 78 | 1024.2 |
| 20260509031009 | 1 | 67 | 0.0 | 1.6 | 0.00 | 0.00 | 0.00 | 77 | 1024.2 |
| 20260509030506 | 1 | 67 | 0.0 | 3.2 | 0.00 | 0.00 | 0.00 | 76 | 1024.3 |
| 20260509030006 | 1 | 67 | 0.0 | 3.2 | 0.00 | 0.00 | 0.00 | 76 | 1024.2 |
| 20260509025505 | 1 | 67 | 0.0 | 3.2 | 0.00 | 0.00 | 0.00 | 77 | 1024.3 |
| 20260509025009 | 1 | 72 | 0.0 | 3.2 | 0.00 | 0.00 | 0.00 | 76 | 1024.3 |
| 20260509024504 | 1 | 73 | 0.0 | 3.2 | 0.00 | 0.00 | 0.00 | 76 | 1024.2 |
| 20260509024007 | 1 | 73 | 0.0 | 3.2 | 0.00 | 0.00 | 0.00 | 76 | 1024.2 |
| 20260509023507 | 1 | 73 | 0.0 | 1.6 | 0.00 | 0.00 | 0.00 | 76 | 1024.3 |
| 20260509023019 | 1 | 73 | 0.0 | 1.6 | 0.00 | 0.00 | 0.00 | 76 | 1024.4 |
| 20260509022503 | 1 | 73 | 0.0 | 1.6 | 0.00 | 0.00 | 0.00 | 76 | 1024.4 |
| 20260509022007 | 1 | 75 | 0.0 | 1.6 | 0.00 | 0.00 | 0.00 | 76 | 1024.4 |
| 20260509021518 | 1 | 75 | 0.0 | 3.2 | 0.00 | 0.00 | 0.00 | 74 | 1024.4 |
| 20260509021003 | 1 | 75 | 0.0 | 3.2 | 0.00 | 0.00 | 0.00 | 75 | 1024.6 |
| 20260509020503 | 1 | 75 | 1.6 | 1.6 | 0.00 | 0.00 | 0.00 | 75 | 1024.7 |
| 20260509020016 | 1 | 76 | 0.0 | 3.2 | 0.00 | 0.00 | 0.00 | 75 | 1024.7 |
| 20260509015508 | 1 | 76 | 0.0 | 3.2 | 0.00 | 0.00 | 0.00 | 74 | 1024.7 |
| 20260509015003 | 2 | 76 | 0.0 | 3.2 | 0.00 | 0.00 | 0.00 | 74 | 1024.7 |
| 20260509014510 | 1 | 76 | 0.0 | 3.2 | 0.00 | 0.00 | 0.00 | 74 | 1024.8 |
| 20260509014009 | 2 | 76 | 0.0 | 1.6 | 0.00 | 0.00 | 0.00 | 73 | 1024.8 |
| 20260509013507 | 2 | 76 | 0.0 | 3.2 | 0.00 | 0.00 | 0.00 | 72 | 1024.7 |
| 20260509013010 | 2 | 76 | 0.0 | 3.2 | 0.00 | 0.00 | 0.00 | 72 | 1024.7 |
| 20260509012512 | 2 | 76 | 0.0 | 3.2 | 0.00 | 0.00 | 0.00 | 73 | 1024.8 |
| 20260509012010 | 1 | 86 | 0.0 | 3.2 | 0.00 | 0.00 | 0.00 | 74 | 1024.7 |
| 20260509011507 | 1 | 86 | 1.6 | 3.2 | 0.00 | 0.00 | 0.00 | 74 | 1024.8 |
| 20260509011006 | 2 | 86 | 0.0 | 3.2 | 0.00 | 0.00 | 0.00 | 73 | 1024.8 |
| 20260509010506 | 1 | 86 | 1.6 | 3.2 | 0.00 | 0.00 | 0.00 | 73 | 1024.8 |
| 20260509010032 | 1 | 98 | 1.6 | 3.2 | 0.00 | 0.00 | 0.00 | 74 | 1024.9 |
| 20260509005506 | 1 | 98 | 0.0 | 3.2 | 0.00 | 0.00 | 0.00 | 75 | 1025.0 |
| 20260509005006 | 2 | 99 | 0.0 | 3.2 | 0.00 | 0.00 | 0.00 | 73 | 1024.9 |
| 20260509004519 | 1 | 98 | 0.0 | 3.2 | 0.00 | 0.00 | 0.00 | 74 | 1024.8 |
| 20260509004003 | 1 | 98 | 0.0 | 3.2 | 0.00 | 0.00 | 0.00 | 74 | 1024.9 |
| 20260509003506 | 2 | 98 | 0.0 | 3.2 | 0.00 | 0.00 | 0.00 | 73 | 1024.9 |
| 20260509003024 | 2 | 105 | 0.0 | 1.6 | 0.00 | 0.00 | 0.00 | 73 | 1024.9 |
| 20260509002507 | 2 | 105 | 0.0 | 0.0 | 0.00 | 0.00 | 0.00 | 72 | 1025.0 |
| 20260509002009 | 2 | 105 | 0.0 | 0.0 | 0.00 | 0.00 | 0.00 | 73 | 1025.1 |
| 20260509001521 | 2 | 105 | 0.0 | 0.0 | 0.00 | 0.00 | 0.00 | 72 | 1025.2 |
| 20260509001010 | 2 | 105 | 0.0 | 0.0 | 0.00 | 0.00 | 0.00 | 72 | 1025.2 |
| 20260509000506 | 2 | 105 | 0.0 | 0.0 | 0.00 | 0.00 | 0.00 | 71 | 1025.2 |
| 20260509000017 | 2 | 105 | 0.0 | 0.0 | 0.00 | 0.00 | 0.00 | 71 | 1025.2 |
| 20260508235513 | 2 | 105 | 0.0 | 3.2 | 0.00 | 0.00 | 0.00 | 71 | 1025.3 |
| 20260508235006 | 2 | 105 | 0.0 | 3.2 | 0.00 | 0.00 | 0.00 | 72 | 1025.2 |
| 20260508234513 | 2 | 105 | 0.0 | 11.3 | 0.00 | 0.00 | 0.00 | 70 | 1025.3 |
| 20260508234009 | 2 | 75 | 1.6 | 11.3 | 0.00 | 0.00 | 0.00 | 68 | 1025.3 |
| 20260508233512 | 2 | 98 | 0.0 | 4.8 | 0.00 | 0.00 | 0.00 | 71 | 1025.3 |
| 20260508233012 | 2 | 99 | 0.0 | 4.8 | 0.00 | 0.00 | 0.00 | 70 | 1025.5 |
| 20260508232507 | 3 | 103 | 0.0 | 0.0 | 0.00 | 0.00 | 0.00 | 69 | 1025.5 |
| 20260508232010 | 3 | 103 | 0.0 | 0.0 | 0.00 | 0.00 | 0.00 | 68 | 1025.4 |
| 20260508231525 | 3 | 103 | 0.0 | 0.0 | 0.00 | 0.00 | 0.00 | 68 | 1025.5 |
| 20260508231007 | 3 | 103 | 0.0 | 0.0 | 0.00 | 0.00 | 0.00 | 67 | 1025.5 |
| 20260508230510 | 3 | 103 | 0.0 | 0.0 | 0.00 | 0.00 | 0.00 | 67 | 1025.5 |
| 20260508230026 | 3 | 103 | 0.0 | 0.0 | 0.00 | 0.00 | 0.00 | 67 | 1025.5 |
| 20260508225513 | 3 | 103 | 0.0 | 0.0 | 0.00 | 0.00 | 0.00 | 67 | 1025.5 |
| 20260508225014 | 3 | 103 | 0.0 | 3.2 | 0.00 | 0.00 | 0.00 | 67 | 1025.5 |
| 20260508224522 | 3 | 103 | 0.0 | 3.2 | 0.00 | 0.00 | 0.00 | 65 | 1025.5 |
| 20260508224009 | 3 | 103 | 0.0 | 3.2 | 0.00 | 0.00 | 0.00 | 64 | 1025.5 |
| 20260508223507 | 3 | 103 | 0.0 | 3.2 | 0.00 | 0.00 | 0.00 | 63 | 1025.5 |
| 20260508223035 | 4 | 105 | 0.0 | 3.2 | 0.00 | 0.00 | 0.00 | 65 | 1025.5 |
| 20260508222508 | 4 | 105 | 0.0 | 4.8 | 0.00 | 0.00 | 0.00 | 61 | 1025.6 |
| 20260508222011 | 5 | 105 | 0.0 | 4.8 | 0.00 | 0.00 | 0.00 | 61 | 1025.5 |
| 20260508221515 | 5 | 101 | 1.6 | 4.8 | 0.00 | 0.00 | 0.00 | 60 | 1025.5 |
| 20260508221013 | 5 | 116 | 1.6 | 6.4 | 0.00 | 0.00 | 0.00 | 59 | 1025.6 |
| 20260508220508 | 5 | 111 | 3.2 | 6.4 | 0.00 | 0.00 | 0.00 | 60 | 1025.6 |
| 20260508220021 | 4 | 126 | 0.0 | 3.2 | 0.00 | 0.00 | 0.00 | 66 | 1025.6 |
| 20260508215507 | 4 | 101 | 0.0 | 1.6 | 0.00 | 0.00 | 0.00 | 63 | 1025.6 |
| 20260508215012 | 4 | 101 | 0.0 | 0.0 | 0.00 | 0.00 | 0.00 | 64 | 1025.6 |
| 20260508214536 | 5 | 101 | 0.0 | 0.0 | 0.00 | 0.00 | 0.00 | 63 | 1025.5 |
| 20260508214008 | 5 | 101 | 0.0 | 0.0 | 0.00 | 0.00 | 0.00 | 60 | 1025.5 |
| 20260508213509 | 5 | 101 | 0.0 | 0.0 | 0.00 | 0.00 | 0.00 | 60 | 1025.5 |
| 20260508213032 | 5 | 101 | 0.0 | 0.0 | 0.00 | 0.00 | 0.00 | 59 | 1025.4 |
| 20260508212507 | 5 | 101 | 0.0 | 0.0 | 0.00 | 0.00 | 0.00 | 58 | 1025.3 |
| 20260508212013 | 6 | 101 | 0.0 | 0.0 | 0.00 | 0.00 | 0.00 | 56 | 1025.3 |
| 20260508211525 | 6 | 101 | 0.0 | 1.6 | 0.00 | 0.00 | 0.00 | 54 | 1025.3 |
| 20260508211011 | 6 | 101 | 0.0 | 1.6 | 0.00 | 0.00 | 0.00 | 54 | 1025.3 |
| 20260508210508 | 7 | 101 | 0.0 | 3.2 | 0.00 | 0.00 | 0.00 | 52 | 1025.3 |
| 20260508210026 | 7 | 101 | 0.0 | 3.2 | 0.00 | 0.00 | 0.00 | 49 | 1025.3 |
| 20260508205514 | 8 | 101 | 1.6 | 3.2 | 0.00 | 0.00 | 0.00 | 45 | 1025.2 |
| 20260508205007 | 8 | 113 | 1.6 | 6.4 | 0.00 | 0.00 | 0.00 | 45 | 1025.1 |
| 20260508204530 | 8 | 130 | 3.2 | 9.7 | 0.00 | 0.00 | 0.00 | 43 | 1025.1 |
| 20260508204017 | 9 | 142 | 4.8 | 12.9 | 0.00 | 0.00 | 0.00 | 42 | 1025.1 |
| 20260508203509 | 9 | 126 | 4.8 | 12.9 | 0.00 | 0.00 | 0.00 | 42 | 1025.1 |
| 20260508203017 | 9 | 133 | 3.2 | 11.3 | 0.00 | 0.00 | 0.00 | 44 | 1025.0 |
| 20260508202511 | 9 | 94 | 3.2 | 11.3 | 0.00 | 0.00 | 0.00 | 45 | 1024.9 |
| 20260508202007 | 9 | 115 | 3.2 | 9.7 | 0.00 | 0.00 | 0.00 | 45 | 1024.8 |
| 20260508201513 | 9 | 121 | 3.2 | 6.4 | 0.00 | 0.00 | 0.00 | 45 | 1024.8 |
| 20260508201008 | 9 | 92 | 4.8 | 6.4 | 0.00 | 0.00 | 0.00 | 45 | 1024.7 |
| 20260508200508 | 9 | 110 | 4.8 | 6.4 | 0.00 | 0.00 | 0.00 | 1024.7 | |
| 20260508200028 | 9 | 102 | 3.2 | 9.7 | 0.00 | 0.00 | 0.00 | 45 | 1024.7 |
| 20260508195510 | 9 | 136 | 1.6 | 9.7 | 0.00 | 0.00 | 0.00 | 45 | 1024.7 |
| 20260508195009 | 9 | 124 | 1.6 | 6.4 | 0.00 | 0.00 | 0.00 | 44 | 1024.6 |
| 20260508194526 | 10 | 122 | 4.8 | 9.7 | 0.00 | 0.00 | 0.00 | 43 | 1024.6 |
| 20260508194010 | 10 | 115 | 4.8 | 11.3 | 0.00 | 0.00 | 0.00 | 43 | 1024.4 |
| 20260508193508 | 10 | 106 | 6.4 | 11.3 | 0.00 | 0.00 | 0.00 | 42 | 1024.4 |
| 20260508193026 | 10 | 101 | 3.2 | 14.5 | 0.00 | 0.00 | 0.00 | 42 | 1024.3 |
| 20260508192511 | 10 | 134 | 8.0 | 16.1 | 0.00 | 0.00 | 0.00 | 43 | 1024.4 |
| 20260508192009 | 10 | 113 | 4.8 | 16.1 | 0.00 | 0.00 | 0.00 | 43 | 1024.4 |
| 20260508191528 | 10 | 111 | 4.8 | 11.3 | 0.00 | 0.00 | 0.00 | 44 | 1024.4 |
| 20260508191008 | 10 | 111 | 6.4 | 14.5 | 0.00 | 0.00 | 0.00 | 44 | 1024.4 |
| 20260508190508 | 10 | 116 | 3.2 | 14.5 | 0.00 | 0.00 | 0.00 | 43 | 1024.4 |
| 20260508190026 | 10 | 86 | 4.8 | 14.5 | 0.00 | 0.00 | 0.00 | 43 | 1024.4 |
| 20260508185508 | 10 | 103 | 4.8 | 12.9 | 0.00 | 0.00 | 0.00 | 42 | 1024.3 |
| 20260508185009 | 11 | 122 | 8.0 | 14.5 | 0.00 | 0.00 | 0.00 | 41 | 1024.3 |
| 20260508184518 | 11 | 146 | 8.0 | 14.5 | 0.00 | 0.00 | 0.00 | 41 | 1024.2 |
| 20260508184009 | 11 | 138 | 6.4 | 20.9 | 0.00 | 0.00 | 0.00 | 42 | 1024.1 |
| 20260508183512 | 11 | 126 | 11.3 | 20.9 | 0.00 | 0.00 | 0.00 | 41 | 1024.1 |
| 20260508183026 | 11 | 109 | 12.9 | 17.7 | 0.00 | 0.00 | 0.00 | 41 | 1024.1 |
| 20260508182509 | 11 | 122 | 6.4 | 16.1 | 0.00 | 0.00 | 0.00 | 40 | 1024.0 |
| 20260508182010 | 11 | 127 | 9.7 | 16.1 | 0.00 | 0.00 | 0.00 | 38 | 1024.1 |
| 20260508181527 | 11 | 132 | 9.7 | 22.5 | 0.00 | 0.00 | 0.00 | 38 | 1024.0 |
| 20260508181011 | 12 | 146 | 9.7 | 22.5 | 0.00 | 0.00 | 0.00 | 38 | 1024.0 |
| 20260508180512 | 12 | 144 | 11.3 | 20.9 | 0.00 | 0.00 | 0.00 | 39 | 1024.0 |
| 20260508180027 | 12 | 97 | 11.3 | 20.9 | 0.00 | 0.00 | 0.00 | 39 | 1023.9 |
| 20260508175510 | 12 | 148 | 12.9 | 20.9 | 0.00 | 0.00 | 0.00 | 39 | 1023.9 |
| 20260508175007 | 12 | 126 | 8.0 | 22.5 | 0.00 | 0.00 | 0.00 | 40 | 1023.8 |
| 20260508174524 | 12 | 138 | 6.4 | 22.5 | 0.00 | 0.00 | 0.00 | 39 | 1023.7 |
| 20260508174013 | 12 | 105 | 9.7 | 19.3 | 0.00 | 0.00 | 0.00 | 39 | 1023.7 |
| 20260508173508 | 12 | 165 | 11.3 | 19.3 | 0.00 | 0.00 | 0.00 | 38 | 1023.6 |
| 20260508173024 | 13 | 140 | 16.1 | 19.3 | 0.00 | 0.00 | 0.00 | 37 | 1023.6 |
| 20260508172508 | 13 | 102 | 12.9 | 19.3 | 0.00 | 0.00 | 0.00 | 36 | 1023.6 |
| 20260508172018 | 13 | 145 | 8.0 | 19.3 | 0.00 | 0.00 | 0.00 | 35 | 1023.6 |
| 20260508171528 | 13 | 101 | 4.8 | 19.3 | 0.00 | 0.00 | 0.00 | 38 | 1023.5 |
| 20260508171013 | 13 | 132 | 8.0 | 19.3 | 0.00 | 0.00 | 0.00 | 38 | 1023.5 |
| 20260508170511 | 13 | 139 | 11.3 | 19.3 | 0.00 | 0.00 | 0.00 | 37 | 1023.5 |
| 20260508170018 | 13 | 142 | 12.9 | 19.3 | 0.00 | 0.00 | 0.00 | 36 | 1023.4 |
| 20260508165510 | 13 | 144 | 9.7 | 19.3 | 0.00 | 0.00 | 0.00 | 36 | 1023.4 |
| 20260508165007 | 13 | 130 | 14.5 | 19.3 | 0.00 | 0.00 | 0.00 | 35 | 1023.4 |
| 20260508164528 | 13 | 111 | 14.5 | 20.9 | 0.00 | 0.00 | 0.00 | 34 | 1023.4 |
| 20260508164015 | 13 | 180 | 12.9 | 24.1 | 0.00 | 0.00 | 0.00 | 34 | 1023.3 |
| 20260508163507 | 13 | 112 | 11.3 | 24.1 | 0.00 | 0.00 | 0.00 | 33 | 1023.4 |
| 20260508163026 | 13 | 145 | 9.7 | 24.1 | 0.00 | 0.00 | 0.00 | 33 | 1023.4 |
| 20260508162512 | 13 | 147 | 9.7 | 24.1 | 0.00 | 0.00 | 0.00 | 33 | 1023.3 |
| 20260508162008 | 14 | 173 | 9.7 | 19.3 | 0.00 | 0.00 | 0.00 | 33 | 1023.3 |
| 20260508161528 | 14 | 126 | 12.9 | 22.5 | 0.00 | 0.00 | 0.00 | 33 | 1023.3 |
| 20260508161012 | 14 | 158 | 9.7 | 24.1 | 0.00 | 0.00 | 0.00 | 33 | 1023.3 |
| 20260508160507 | 14 | 151 | 14.5 | 24.1 | 0.00 | 0.00 | 0.00 | 32 | 1023.3 |
| 20260508160048 | 14 | 132 | 11.3 | 19.3 | 0.00 | 0.00 | 0.00 | 32 | 1023.4 |
| 20260508155513 | 14 | 163 | 11.3 | 19.3 | 0.00 | 0.00 | 0.00 | 31 | 1023.2 |
| 20260508155008 | 14 | 123 | 9.7 | 17.7 | 0.00 | 0.00 | 0.00 | 31 | 1023.1 |
| 20260508154526 | 15 | 160 | 4.8 | 17.7 | 0.00 | 0.00 | 0.00 | 31 | 1023.1 |
| 20260508154010 | 14 | 139 | 12.9 | 20.9 | 0.00 | 0.00 | 0.00 | 30 | 1023.1 |
| 20260508153510 | 14 | 138 | 16.1 | 25.7 | 0.00 | 0.00 | 0.00 | 29 | 1023.1 |
| 20260508153028 | 14 | 152 | 14.5 | 25.7 | 0.00 | 0.00 | 0.00 | 28 | 1023.1 |
| 20260508152512 | 15 | 202 | 12.9 | 19.3 | 0.00 | 0.00 | 0.00 | 31 | 1023.3 |
| 20260508152016 | 14 | 193 | 12.9 | 22.5 | 0.00 | 0.00 | 0.00 | 29 | 1023.4 |
| 20260508151523 | 14 | 141 | 14.5 | 22.5 | 0.00 | 0.00 | 0.00 | 30 | 1023.3 |
| 20260508151010 | 15 | 141 | 14.5 | 20.9 | 0.00 | 0.00 | 0.00 | 30 | 1023.3 |
| 20260508150509 | 14 | 130 | 12.9 | 19.3 | 0.00 | 0.00 | 0.00 | 30 | 1023.4 |
| 20260508150034 | 14 | 140 | 12.9 | 22.5 | 0.00 | 0.00 | 0.00 | 31 | 1023.4 |
| 20260508145511 | 15 | 127 | 14.5 | 22.5 | 0.00 | 0.00 | 0.00 | 30 | 1023.4 |
| 20260508145017 | 14 | 140 | 11.3 | 19.3 | 0.00 | 0.00 | 0.00 | 29 | 1023.5 |
| 20260508144527 | 15 | 157 | 9.7 | 20.9 | 0.00 | 0.00 | 0.00 | 31 | 1023.5 |
| 20260508144016 | 15 | 146 | 8.0 | 20.9 | 0.00 | 0.00 | 0.00 | 31 | 1023.5 |
| 20260508143516 | 15 | 169 | 12.9 | 22.5 | 0.00 | 0.00 | 0.00 | 30 | 1023.6 |
| 20260508143031 | 15 | 144 | 11.3 | 22.5 | 0.00 | 0.00 | 0.00 | 31 | 1023.6 |
| 20260508142512 | 15 | 114 | 9.7 | 19.3 | 0.00 | 0.00 | 0.00 | 28 | 1023.6 |
| 20260508142009 | 15 | 132 | 9.7 | 19.3 | 0.00 | 0.00 | 0.00 | 29 | 1023.6 |
| 20260508141536 | 15 | 134 | 11.3 | 20.9 | 0.00 | 0.00 | 0.00 | 29 | 1023.6 |
| 20260508141010 | 15 | 153 | 11.3 | 20.9 | 0.00 | 0.00 | 0.00 | 30 | 1023.7 |
| 20260508140510 | 15 | 161 | 11.3 | 22.5 | 0.00 | 0.00 | 0.00 | 30 | 1023.8 |
| 20260508140024 | 15 | 141 | 12.9 | 22.5 | 0.00 | 0.00 | 0.00 | 32 | 1023.9 |
| 20260508135517 | 15 | 153 | 8.0 | 19.3 | 0.00 | 0.00 | 0.00 | 32 | 1023.8 |
| 20260508135012 | 15 | 144 | 11.3 | 19.3 | 0.00 | 0.00 | 0.00 | 33 | 1023.8 |
| 20260508134531 | 15 | 178 | 11.3 | 20.9 | 0.00 | 0.00 | 0.00 | 32 | 1023.8 |
| 20260508134014 | 15 | 152 | 14.5 | 22.5 | 0.00 | 0.00 | 0.00 | 35 | 1023.9 |
| 20260508133512 | 15 | 151 | 14.5 | 22.5 | 0.00 | 0.00 | 0.00 | 33 | 1023.8 |
| 20260508133028 | 15 | 130 | 11.3 | 20.9 | 0.00 | 0.00 | 0.00 | 33 | 1023.8 |
| 20260508132512 | 15 | 149 | 8.0 | 24.1 | 0.00 | 0.00 | 0.00 | 35 | 1023.8 |
| 20260508132011 | 15 | 136 | 14.5 | 25.7 | 0.00 | 0.00 | 0.00 | 34 | 1023.8 |
| 20260508131529 | 15 | 111 | 9.7 | 25.7 | 0.00 | 0.00 | 0.00 | 35 | 1023.7 |
| 20260508131012 | 15 | 159 | 11.3 | 22.5 | 0.00 | 0.00 | 0.00 | 35 | 1023.8 |
| 20260508130511 | 15 | 144 | 14.5 | 25.7 | 0.00 | 0.00 | 0.00 | 36 | 1023.9 |
| 20260508130028 | 15 | 149 | 14.5 | 25.7 | 0.00 | 0.00 | 0.00 | 35 | 1023.9 |
| 20260508125510 | 15 | 145 | 16.1 | 25.7 | 0.00 | 0.00 | 0.00 | 35 | 1023.8 |
| 20260508125010 | 15 | 144 | 12.9 | 20.9 | 0.00 | 0.00 | 0.00 | 35 | 1023.9 |
| 20260508124527 | 15 | 148 | 11.3 | 19.3 | 0.00 | 0.00 | 0.00 | 35 | 1023.8 |
| 20260508124015 | 15 | 140 | 12.9 | 20.9 | 0.00 | 0.00 | 0.00 | 34 | 1023.8 |
| 20260508123507 | 15 | 143 | 12.9 | 20.9 | 0.00 | 0.00 | 0.00 | 35 | 1023.9 |
| 20260508123028 | 15 | 142 | 9.7 | 25.7 | 0.00 | 0.00 | 0.00 | 34 | 1023.8 |
| 20260508122514 | 15 | 166 | 11.3 | 25.7 | 0.00 | 0.00 | 0.00 | 34 | 1023.8 |
| 20260508122011 | 15 | 123 | 11.3 | 20.9 | 0.00 | 0.00 | 0.00 | 34 | 1023.8 |
| 20260508121549 | 15 | 162 | 12.9 | 20.9 | 0.00 | 0.00 | 0.00 | 34 | 1023.9 |
| 20260508121010 | 15 | 129 | 12.9 | 22.5 | 0.00 | 0.00 | 0.00 | 33 | 1023.8 |
| 20260508120514 | 15 | 146 | 12.9 | 22.5 | 0.00 | 0.00 | 0.00 | 34 | 1023.7 |
| 20260508120024 | 15 | 148 | 11.3 | 22.5 | 0.00 | 0.00 | 0.00 | 35 | 1023.8 |
| 20260508115512 | 15 | 99 | 12.9 | 22.5 | 0.00 | 0.00 | 0.00 | 33 | 1023.9 |
| 20260508115010 | 14 | 150 | 14.5 | 20.9 | 0.00 | 0.00 | 0.00 | 33 | 1023.8 |
| 20260508114528 | 15 | 141 | 9.7 | 20.9 | 0.00 | 0.00 | 0.00 | 35 | 1023.8 |
| 20260508114009 | 15 | 181 | 12.9 | 19.3 | 0.00 | 0.00 | 0.00 | 34 | 1023.9 |
| 20260508113512 | 15 | 132 | 12.9 | 19.3 | 0.00 | 0.00 | 0.00 | 33 | 1023.9 |
| 20260508113028 | 15 | 101 | 9.7 | 19.3 | 0.00 | 0.00 | 0.00 | 33 | 1023.9 |
| 20260508112509 | 15 | 94 | 8.0 | 17.7 | 0.00 | 0.00 | 0.00 | 34 | 1023.9 |
| 20260508112009 | 15 | 147 | 11.3 | 19.3 | 0.00 | 0.00 | 0.00 | 35 | 1024.0 |
| 20260508111526 | 14 | 138 | 11.3 | 19.3 | 0.00 | 0.00 | 0.00 | 35 | 1024.0 |
| 20260508111010 | 15 | 174 | 11.3 | 19.3 | 0.00 | 0.00 | 0.00 | 36 | 1024.0 |
| 20260508110511 | 14 | 134 | 11.3 | 19.3 | 0.00 | 0.00 | 0.00 | 36 | 1023.9 |
| 20260508110031 | 15 | 191 | 9.7 | 16.1 | 0.00 | 0.00 | 0.00 | 36 | 1024.0 |
| 20260508105516 | 14 | 176 | 11.3 | 19.3 | 0.00 | 0.00 | 0.00 | 37 | 1024.0 |
| 20260508105013 | 14 | 164 | 4.8 | 20.9 | 0.00 | 0.00 | 0.00 | 36 | 1024.0 |
| 20260508104527 | 13 | 173 | 11.3 | 20.9 | 0.00 | 0.00 | 0.00 | 36 | 1024.1 |
| 20260508104010 | 13 | 148 | 9.7 | 20.9 | 0.00 | 0.00 | 0.00 | 36 | 1024.1 |
| 20260508103510 | 13 | 113 | 12.9 | 19.3 | 0.00 | 0.00 | 0.00 | 35 | 1024.1 |
| 20260508103026 | 13 | 132 | 11.3 | 17.7 | 0.00 | 0.00 | 0.00 | 36 | 1024.0 |
| 20260508102512 | 13 | 140 | 11.3 | 22.5 | 0.00 | 0.00 | 0.00 | 38 | 1024.0 |
| 20260508102012 | 13 | 141 | 8.0 | 22.5 | 0.00 | 0.00 | 0.00 | 39 | 1024.0 |